Location: Chiroubles
(46.1812°N, 4.6660°E)
Time: 16:02:06
(UTC+00:00)

Transit 4A - Pass Details

Date: 07 December 2020
Orbit: 864 x 980 km, 66.8° (Epoch: 26 January)

Event Time Altitude Azimuth Distance (km) Brightness Sun altitude
Rises 16:19:04 0° 311° (NW) 3,662 11.3 -4.3°
Reaches altitude 10° 16:23:05 10° 287° (WNW) 2,689 11.1 -5.0°
Maximum altitude 16:25:55 13° 260° (W) 2,422 11.5 -5.4°
Drops below altitude 10° 16:28:44 10° 232° (SW) 2,646 12.0 -5.8°
Sets 16:32:39 0° 207° (SSW) 3,556 11.9 -6.4°
